STARLINK-37192

Last updated on Sun Apr 12 2026 00:02:08 GMT+0000 (Coordinated Universal Time)

1 68342U 26059X 26101.50002315 -.01914965 00000+0 -23721-1 0 9993 2 68342 53.1589 198.5538 0001119 87.4721 202.8667 15.62679585 4319
UTC large
Height (km)
Speed (km/s)
/
Latitude / Longitude
Inclination (degrees)
Orbital Period (minutes)
Azimuth
Elevation
Range (km)
Doppler Factor

Next 0 passes for location: London (51.5072 / 0.1276)

Sorry there are no passes over London.
STARLINK-37192